Weather History for KSRR - November, 2012

Change the Weather History Date:

Thursday, November 8, 2012

  Actual Average Record
Temperature  
Mean Temperature 57 °F -  
Max Temperature 66 °F 54 °F 73 °F (1999)
Min Temperature 48 °F 34 °F 15 °F (2000)
Degree Days  
Heating Degree Days 8    
Growing Degree Days 7 (Base 50)    
Moisture  
Dew Point 22 °F    
Average Humidity 26    
Maximum Humidity 35    
Minimum Humidity 21    
Precipitation  
Precipitation 0.00 in - - ()
Sea Level Pressure  
Sea Level Pressure 30.15 in    
Wind  
Wind Speed 8 mph (SW)    
Max Wind Speed 22 mph    
Max Gust Speed 25 mph    
Visibility 10 miles    
Events Rain    
Averages and records for this station are not official NWS values.
T = Trace of Precipitation, MM = Missing Value Source: NWS Daily Summary

Daily Weather History Graph

Daily Weather History Graph

Search for Another Location

Airport or City:

Trip Planner

Search our weather history database for the weather conditions in past years. The results will help you decide how hot, cold, wet, or windy it might be!

Date:

Astronomy

Nov. 08, 2012 Rise Set
Actual Time 6:27 AM MST 5:03 PM MST
Civil Twilight 6:01 AM MST 5:29 PM MST
Nautical Twilight 5:31 AM MST 5:59 PM MST
Astronomical Twilight 5:02 AM MST 6:28 PM MST
Moon 12:42 AM MST (11/8) 1:31 PM MST (11/8)
Length of Visible Light 11h 28m
Length of Day
10h 36m
Waning Crescent, 32% of the Moon is Illuminated
Nov 8
Waning Crescent
Nov 13
New
Nov 20
First Quarter
Nov 28
Full
Dec 6
Last Quarter

Hourly Weather History & Observations

Time (MST) Temp. Dew Point Humidity Pressure Visibility Wind Dir Wind Speed Gust Speed Precip Events Conditions
12:15 AM 53.6 °F 17.6 °F 24% 30.20 in 10.0 mi WSW 6.9 mph - N/A Rain Rain
12:35 AM 55.4 °F 17.6 °F 23% 30.20 in 10.0 mi SW 4.6 mph - N/A Rain Rain
12:55 AM 55.4 °F 17.6 °F 23% 30.20 in 10.0 mi SW 4.6 mph - N/A Rain Rain
1:15 AM 53.6 °F 17.6 °F 24% 30.19 in 10.0 mi SW 5.8 mph - N/A Rain Rain
1:35 AM 53.6 °F 17.6 °F 24% 30.19 in 10.0 mi SW 6.9 mph - N/A Rain Rain
1:55 AM 51.8 °F 17.6 °F 26% 30.18 in 10.0 mi SW 10.4 mph - N/A Rain Rain
2:15 AM 50.0 °F 17.6 °F 28% 30.18 in 10.0 mi SW 10.4 mph - N/A Rain Rain
2:35 AM 51.8 °F 17.6 °F 26% 30.18 in 10.0 mi SW 8.1 mph - N/A Rain Rain
2:55 AM 55.4 °F 17.6 °F 23% 30.17 in 10.0 mi WNW 5.8 mph - N/A Rain Rain
3:15 AM 55.4 °F 17.6 °F 23% 30.17 in 10.0 mi NW 6.9 mph - N/A Rain Rain
3:35 AM 57.2 °F 17.6 °F 21% 30.17 in 10.0 mi WNW 8.1 mph - N/A Rain Rain
3:55 AM 50.0 °F 17.6 °F 28% 30.17 in 10.0 mi WSW 4.6 mph - N/A Rain Rain
4:15 AM 50.0 °F 17.6 °F 28% 30.17 in 10.0 mi SW 6.9 mph - N/A Rain Rain
4:35 AM 51.8 °F 17.6 °F 26% 30.17 in 10.0 mi West 5.8 mph - N/A Rain Rain
4:55 AM 53.6 °F 17.6 °F 24% 30.17 in 10.0 mi West 8.1 mph - N/A Rain Rain
5:15 AM 48.2 °F 17.6 °F 30% 30.17 in 10.0 mi ESE 5.8 mph - N/A Rain Rain
5:55 AM 48.2 °F 19.4 °F 32% 30.18 in 10.0 mi SSW 4.6 mph - N/A Rain Rain
6:15 AM 48.2 °F 19.4 °F 32% 30.18 in 10.0 mi South 4.6 mph - N/A Rain Rain
6:35 AM 51.8 °F 19.4 °F 28% 30.18 in 10.0 mi South 4.6 mph - N/A Rain Rain
6:55 AM 48.2 °F 19.4 °F 32% 30.19 in 10.0 mi South 6.9 mph - N/A Rain Rain
7:15 AM 50.0 °F 19.4 °F 30% 30.19 in 10.0 mi Calm Calm - N/A Rain Rain
7:35 AM 53.6 °F 19.4 °F 26% 30.20 in 10.0 mi Calm Calm - N/A Rain Heavy Rain
7:55 AM 53.6 °F 21.2 °F 28% 30.20 in 10.0 mi Calm Calm - N/A Rain Rain
8:15 AM 53.6 °F 19.4 °F 26% 30.20 in 10.0 mi Calm Calm - N/A Rain Rain
8:35 AM 57.2 °F 21.2 °F 25% 30.21 in 10.0 mi South 5.8 mph - N/A Rain Rain
8:55 AM 59.0 °F 21.2 °F 23% 30.20 in 10.0 mi Calm Calm - N/A Rain Rain
9:15 AM 60.8 °F 23.0 °F 23% 30.20 in 10.0 mi ENE 3.5 mph - N/A Rain Rain
9:35 AM 64.4 °F 23.0 °F 21% 30.20 in 10.0 mi SSE 10.4 mph - N/A Rain Light Rain
9:55 AM 64.4 °F 23.0 °F 21% 30.20 in 10.0 mi SSW 9.2 mph - N/A Rain Light Rain
10:15 AM 62.6 °F 23.0 °F 22% 30.19 in 10.0 mi South 11.5 mph - N/A Rain Light Rain
10:35 AM 64.4 °F 23.0 °F 21% 30.19 in 10.0 mi SW 10.4 mph 16.1 mph N/A Rain Light Rain
10:55 AM 62.6 °F 23.0 °F 22% 30.18 in 10.0 mi South 15.0 mph - N/A Rain Rain
11:15 AM 62.6 °F 23.0 °F 22% 30.18 in 10.0 mi SSW 10.4 mph - N/A Rain Rain
11:35 AM 62.6 °F 23.0 °F 22% 30.17 in 10.0 mi SSW 13.8 mph 18.4 mph N/A Rain Rain
11:55 AM 64.4 °F 23.0 °F 21% 30.16 in 10.0 mi SSW 8.1 mph - N/A Rain Rain
12:15 PM 64.4 °F 23.0 °F 21% 30.15 in 10.0 mi South 3.5 mph - N/A Rain Rain
12:35 PM 66.2 °F 24.8 °F 21% 30.13 in 10.0 mi WSW 5.8 mph 24.2 mph N/A Rain Rain
12:55 PM 66.2 °F 26.6 °F 23% 30.12 in 10.0 mi SW 17.3 mph 20.7 mph N/A Rain Light Rain
1:15 PM 66.2 °F 26.6 °F 23% 30.12 in 10.0 mi SW 13.8 mph - N/A Rain Light Rain
1:35 PM 66.2 °F 26.6 °F 23% 30.11 in 10.0 mi WSW 10.4 mph - N/A Rain Light Rain
1:55 PM 66.2 °F 26.6 °F 23% 30.11 in 10.0 mi SW 18.4 mph 25.3 mph N/A Rain Light Rain
2:15 PM 66.2 °F 26.6 °F 23% 30.11 in 10.0 mi SW 21.9 mph 25.3 mph N/A Rain Light Rain
2:35 PM 64.4 °F 26.6 °F 24% 30.10 in 10.0 mi SW 15.0 mph 23.0 mph N/A Rain Light Rain
2:55 PM 64.4 °F 26.6 °F 24% 30.11 in 10.0 mi SW 17.3 mph 24.2 mph N/A Rain Light Rain
3:15 PM 64.4 °F 26.6 °F 24% 30.11 in 10.0 mi SW 17.3 mph 23.0 mph N/A Rain Light Rain
3:35 PM 62.6 °F 26.6 °F 26% 30.10 in 10.0 mi SW 16.1 mph 21.9 mph N/A Rain Light Rain
3:55 PM 64.4 °F 26.6 °F 24% 30.11 in 10.0 mi SW 13.8 mph 20.7 mph N/A Rain Light Rain
4:15 PM 64.4 °F 26.6 °F 24% 30.10 in 10.0 mi SW 16.1 mph 25.3 mph N/A Rain Light Rain
4:35 PM 62.6 °F 26.6 °F 26% 30.10 in 10.0 mi SW 16.1 mph 25.3 mph N/A Rain Light Rain
4:55 PM 60.8 °F 26.6 °F 27% 30.11 in 10.0 mi SW 10.4 mph - N/A Rain Light Rain
5:15 PM 60.8 °F 26.6 °F 27% 30.11 in 10.0 mi SW 9.2 mph - N/A Rain Light Rain
5:35 PM 59.0 °F 26.6 °F 29% 30.11 in 10.0 mi SW 8.1 mph - N/A Rain Light Rain
5:55 PM 57.2 °F 26.6 °F 31% 30.11 in 10.0 mi SW 8.1 mph - N/A Rain Light Rain
6:15 PM 57.2 °F 26.6 °F 31% 30.11 in 10.0 mi SW 8.1 mph - N/A Rain Light Rain
6:35 PM 57.2 °F 26.6 °F 31% 30.12 in 10.0 mi SSW 8.1 mph - N/A Rain Light Rain
7:15 PM 55.4 °F 26.6 °F 33% 30.11 in 10.0 mi SSW 8.1 mph - N/A Rain Light Rain
7:35 PM 55.4 °F 26.6 °F 33% 30.11 in 10.0 mi SSW 9.2 mph - N/A Rain Light Rain
7:55 PM 53.6 °F 26.6 °F 35% 30.11 in 10.0 mi SSW 6.9 mph - N/A Rain Light Rain
8:15 PM 53.6 °F 26.6 °F 35% 30.11 in 10.0 mi SSW 8.1 mph - N/A Rain Light Rain
8:35 PM 53.6 °F 26.6 °F 35% 30.10 in 10.0 mi SSW 9.2 mph - N/A Rain Light Rain
8:55 PM 53.6 °F 26.6 °F 35% 30.11 in 10.0 mi SSW 10.4 mph - N/A Rain Light Rain
9:15 PM 55.4 °F 24.8 °F 31% 30.11 in 10.0 mi SW 15.0 mph - N/A Rain Light Rain
9:35 PM 55.4 °F 23.0 °F 29% 30.11 in 10.0 mi SW 12.7 mph - N/A Rain Light Rain
9:55 PM 53.6 °F 23.0 °F 30% 30.10 in 10.0 mi WSW 12.7 mph - N/A Rain Light Rain
10:15 PM 53.6 °F 23.0 °F 30% 30.10 in 10.0 mi SW 12.7 mph - N/A Rain Light Rain
10:35 PM 53.6 °F 23.0 °F 30% 30.11 in 10.0 mi SW 9.2 mph - N/A Rain Rain
10:55 PM 53.6 °F 21.2 °F 28% 30.11 in 10.0 mi SW 10.4 mph - N/A Rain Light Rain
11:15 PM 53.6 °F 19.4 °F 26% 30.10 in 7.0 mi SW 13.8 mph 20.7 mph N/A Rain Light Rain
11:35 PM 53.6 °F 17.6 °F 24% 30.10 in 10.0 mi SW 15.0 mph - N/A Rain Rain
11:55 PM 51.8 °F 17.6 °F 26% 30.10 in 10.0 mi SSW 10.4 mph - N/A Rain Rain